| time (UTC) | temp F | wind direction | speed MPH | gust MPH | rain 1hr in | rain 24hr in | rain mn in | humidity % | barometer mb |
| 20260903060520 | 82 | 109 | 3.0 | 7.0 | 0.00 | 0.00 | 0.00 | 68 | 1013.6 |
| 20260903060018 | 82 | 118 | 5.0 | 9.0 | 0.00 | 0.00 | 0.00 | 68 | 1013.6 |
| 20260903055516 | 82 | 121 | 3.0 | 8.0 | 0.00 | 0.00 | 0.00 | 67 | 1013.8 |
| 20260903055034 | 83 | 104 | 3.0 | 6.0 | 0.00 | 0.00 | 0.00 | 67 | 1013.7 |
| 20260903054532 | 83 | 104 | 4.0 | 10.0 | 0.00 | 0.00 | 0.00 | 67 | 1013.7 |
| 20260903054030 | 83 | 92 | 3.0 | 8.0 | 0.00 | 0.00 | 0.00 | 67 | 1013.7 |
| 20260903053548 | 83 | 86 | 3.0 | 6.0 | 0.00 | 0.00 | 0.00 | 66 | 1013.6 |
| 20260903053026 | 83 | 96 | 3.0 | 10.0 | 0.00 | 0.00 | 0.00 | 66 | 1013.6 |
| 20260903052525 | 83 | 93 | 3.0 | 8.0 | 0.00 | 0.00 | 0.00 | 65 | 1013.7 |
| 20260903052022 | 84 | 92 | 3.0 | 6.0 | 0.00 | 0.00 | 0.00 | 64 | 1013.8 |
| 20260903051540 | 84 | 102 | 4.0 | 8.0 | 0.00 | 0.00 | 0.00 | 63 | 1013.7 |
| 20260903051021 | 84 | 117 | 3.0 | 7.0 | 0.00 | 0.00 | 0.00 | 63 | 1013.8 |
| 20260903050517 | 84 | 99 | 2.0 | 6.0 | 0.00 | 0.00 | 0.00 | 63 | 1013.6 |
| 20260903050016 | 84 | 101 | 3.0 | 6.0 | 0.00 | 0.00 | 0.00 | 62 | 1013.6 |
| 20260903045535 | 85 | 104 | 4.0 | 8.0 | 0.00 | 0.00 | 0.00 | 62 | 1013.6 |
| 20260903045033 | 85 | 99 | 4.0 | 7.0 | 0.00 | 0.00 | 0.00 | 61 | 1013.6 |
| 20260903044531 | 85 | 97 | 3.0 | 8.0 | 0.00 | 0.00 | 0.00 | 61 | 1013.5 |
| 20260903044050 | 85 | 94 | 3.0 | 6.0 | 0.00 | 0.00 | 0.00 | 62 | 1013.5 |
| 20260903043528 | 85 | 106 | 2.0 | 4.0 | 0.00 | 0.00 | 0.00 | 62 | 1013.5 |
| 20260903043025 | 85 | 107 | 2.0 | 4.0 | 0.00 | 0.00 | 0.00 | 61 | 1013.6 |
| 20260903042543 | 85 | 112 | 2.0 | 4.0 | 0.00 | 0.00 | 0.00 | 61 | 1013.6 |
| 20260903042021 | 86 | 131 | 3.0 | 7.0 | 0.00 | 0.00 | 0.00 | 61 | 1013.7 |
| 20260903041520 | 86 | 156 | 2.0 | 10.0 | 0.00 | 0.00 | 0.00 | 60 | 1013.6 |
| 20260903041018 | 86 | 118 | 3.0 | 10.0 | 0.00 | 0.00 | 0.00 | 60 | 1013.6 |
| 20260903040536 | 86 | 116 | 4.0 | 9.0 | 0.00 | 0.00 | 0.00 | 59 | 1013.6 |
| 20260903040034 | 86 | 137 | 3.0 | 5.0 | 0.00 | 0.00 | 0.00 | 59 | 1013.5 |
| 20260903035532 | 87 | 134 | 4.0 | 9.0 | 0.00 | 0.00 | 0.00 | 59 | 1013.5 |
| 20260903035030 | 87 | 130 | 4.0 | 11.0 | 0.00 | 0.00 | 0.00 | 58 | 1013.7 |
| 20260903034528 | 87 | 145 | 4.0 | 10.0 | 0.00 | 0.00 | 0.00 | 58 | 1013.6 |
| 20260903034027 | 87 | 134 | 4.0 | 11.0 | 0.00 | 0.00 | 0.00 | 58 | 1013.5 |
| 20260903033525 | 87 | 148 | 4.0 | 9.0 | 0.00 | 0.00 | 0.00 | 57 | 1013.6 |
| 20260903033023 | 88 | 129 | 3.0 | 8.0 | 0.00 | 0.00 | 0.00 | 57 | 1013.5 |
| 20260903032521 | 88 | 142 | 4.0 | 8.0 | 0.00 | 0.00 | 0.00 | 56 | 1013.6 |
| 20260903032020 | 88 | 162 | 1.0 | 4.0 | 0.00 | 0.00 | 0.00 | 56 | 1013.4 |
| 20260903031538 | 88 | 137 | 4.0 | 8.0 | 0.00 | 0.00 | 0.00 | 55 | 1013.6 |
| 20260903031016 | 89 | 171 | 3.0 | 7.0 | 0.00 | 0.00 | 0.00 | 55 | 1013.6 |
| 20260903030515 | 89 | 148 | 4.0 | 9.0 | 0.00 | 0.00 | 0.00 | 54 | 1013.5 |
| 20260903030034 | 89 | 126 | 5.0 | 12.0 | 0.00 | 0.00 | 0.00 | 54 | 1013.4 |
| 20260903025532 | 90 | 156 | 5.0 | 13.0 | 0.00 | 0.00 | 0.00 | 53 | 1013.2 |
| 20260903025051 | 90 | 153 | 4.0 | 9.0 | 0.00 | 0.00 | 0.00 | 52 | 1013.2 |
| 20260903024529 | 90 | 134 | 4.0 | 11.0 | 0.00 | 0.00 | 0.00 | 51 | 1013.2 |
| 20260903024028 | 90 | 135 | 3.0 | 7.0 | 0.00 | 0.00 | 0.00 | 51 | 1013.1 |
| 20260903023526 | 91 | 130 | 3.0 | 7.0 | 0.00 | 0.00 | 0.00 | 50 | 1012.8 |
| 20260903023024 | 91 | 127 | 4.0 | 13.0 | 0.00 | 0.00 | 0.00 | 50 | 1012.8 |
| 20260903022523 | 91 | 135 | 2.0 | 7.0 | 0.00 | 0.00 | 0.00 | 50 | 1012.6 |
| 20260903022021 | 91 | 126 | 4.0 | 10.0 | 0.00 | 0.00 | 0.00 | 49 | 1012.6 |
| 20260903021519 | 91 | 125 | 5.0 | 10.0 | 0.00 | 0.00 | 0.00 | 49 | 1012.6 |
| 20260903021017 | 92 | 126 | 4.0 | 9.0 | 0.00 | 0.00 | 0.00 | 49 | 1012.5 |
| 20260903020535 | 92 | 119 | 5.0 | 11.0 | 0.00 | 0.00 | 0.00 | 49 | 1012.2 |
| 20260903020053 | 92 | 99 | 5.0 | 8.0 | 0.00 | 0.00 | 0.00 | 49 | 1012.2 |
| 20260903015531 | 92 | 117 | 5.0 | 11.0 | 0.00 | 0.00 | 0.00 | 49 | 1012.2 |
| 20260903015029 | 92 | 100 | 4.0 | 9.0 | 0.00 | 0.00 | 0.00 | 50 | 1012.1 |
| 20260903014527 | 92 | 108 | 4.0 | 8.0 | 0.00 | 0.00 | 0.00 | 49 | 1012.2 |
| 20260903014025 | 92 | 116 | 5.0 | 10.0 | 0.00 | 0.00 | 0.00 | 49 | 1012.2 |
| 20260903013523 | 92 | 116 | 4.0 | 13.0 | 0.00 | 0.00 | 0.00 | 49 | 1012.0 |
| 20260903013021 | 92 | 111 | 6.0 | 10.0 | 0.00 | 0.00 | 0.00 | 49 | 1011.9 |
| 20260903012519 | 93 | 108 | 4.0 | 10.0 | 0.00 | 0.00 | 0.00 | 48 | 1012.0 |
| 20260903012017 | 93 | 110 | 5.0 | 9.0 | 0.00 | 0.00 | 0.00 | 48 | 1012.0 |
| 20260903011535 | 93 | 97 | 4.0 | 11.0 | 0.00 | 0.00 | 0.00 | 48 | 1011.9 |
| 20260903011033 | 93 | 98 | 4.0 | 8.0 | 0.00 | 0.00 | 0.00 | 48 | 1011.9 |
| 20260903010530 | 93 | 109 | 4.0 | 8.0 | 0.00 | 0.00 | 0.00 | 48 | 1011.8 |
| 20260903010029 | 93 | 111 | 4.0 | 10.0 | 0.00 | 0.00 | 0.00 | 47 | 1011.8 |
| 20260903005526 | 93 | 101 | 4.0 | 12.0 | 0.00 | 0.00 | 0.00 | 47 | 1011.9 |
| 20260903005024 | 94 | 95 | 4.0 | 9.0 | 0.00 | 0.00 | 0.00 | 47 | 1011.8 |
| 20260903004523 | 94 | 107 | 5.0 | 11.0 | 0.00 | 0.00 | 0.00 | 47 | 1011.8 |
| 20260903004021 | 94 | 94 | 5.0 | 10.0 | 0.00 | 0.00 | 0.00 | 47 | 1011.9 |
| 20260903003518 | 95 | 95 | 6.0 | 17.0 | 0.00 | 0.00 | 0.00 | 46 | 1011.7 |
| 20260903003016 | 96 | 100 | 5.0 | 12.0 | 0.00 | 0.00 | 0.00 | 45 | 1011.8 |
| 20260903002534 | 96 | 88 | 6.0 | 14.0 | 0.00 | 0.00 | 0.00 | 41 | 1011.6 |
| 20260903002032 | 97 | 87 | 5.0 | 11.0 | 0.00 | 0.00 | 0.00 | 40 | 1011.6 |
| 20260903001530 | 97 | 87 | 6.0 | 13.0 | 0.00 | 0.00 | 0.00 | 40 | 1011.6 |
| 20260903001028 | 97 | 90 | 5.0 | 11.0 | 0.00 | 0.00 | 0.00 | 39 | 1011.6 |
| 20260903000526 | 97 | 94 | 3.0 | 6.0 | 0.00 | 0.00 | 0.00 | 39 | 1011.8 |
| 20260903000024 | 97 | 86 | 5.0 | 12.0 | 0.00 | 0.00 | 0.00 | 40 | 1011.6 |
| 20260902235522 | 98 | 86 | 6.0 | 11.0 | 0.00 | 0.00 | 0.00 | 39 | 1011.6 |
| 20260902235020 | 98 | 88 | 4.0 | 6.0 | 0.00 | 0.00 | 0.00 | 39 | 1011.6 |
| 20260902234518 | 97 | 84 | 4.0 | 10.0 | 0.00 | 0.00 | 0.00 | 39 | 1011.5 |
| 20260902234017 | 98 | 93 | 6.0 | 10.0 | 0.00 | 0.00 | 0.00 | 39 | 1011.7 |
| 20260902233535 | 98 | 87 | 6.0 | 11.0 | 0.00 | 0.00 | 0.00 | 38 | 1011.7 |
| 20260902233054 | 98 | 80 | 6.0 | 12.0 | 0.00 | 0.00 | 0.00 | 38 | 1011.7 |
| 20260902232531 | 98 | 84 | 4.0 | 9.0 | 0.00 | 0.00 | 0.00 | 39 | 1011.7 |
| 20260902232029 | 98 | 103 | 3.0 | 7.0 | 0.00 | 0.00 | 0.00 | 39 | 1011.9 |
| 20260902231528 | 98 | 103 | 4.0 | 10.0 | 0.00 | 0.00 | 0.00 | 39 | 1011.7 |
| 20260902231026 | 98 | 93 | 4.0 | 7.0 | 0.00 | 0.00 | 0.00 | 40 | 1011.6 |
| 20260902230544 | 98 | 85 | 4.0 | 9.0 | 0.00 | 0.00 | 0.00 | 40 | 1011.6 |
| 20260902230021 | 99 | 81 | 4.0 | 9.0 | 0.00 | 0.00 | 0.00 | 40 | 1011.7 |
| 20260902225519 | 98 | 95 | 3.0 | 10.0 | 0.00 | 0.00 | 0.00 | 40 | 1011.7 |
| 20260902225058 | 99 | 96 | 5.0 | 11.0 | 0.00 | 0.00 | 0.00 | 40 | 1011.8 |
| 20260902224515 | 98 | 90 | 3.0 | 8.0 | 0.00 | 0.00 | 0.00 | 41 | 1011.7 |
| 20260902224033 | 98 | 63 | 5.0 | 12.0 | 0.00 | 0.00 | 0.00 | 41 | 1011.8 |
| 20260902223531 | 98 | 56 | 5.0 | 12.0 | 0.00 | 0.00 | 0.00 | 41 | 1011.8 |
| 20260902223028 | 98 | 70 | 6.0 | 13.0 | 0.00 | 0.00 | 0.00 | 41 | 1011.9 |
| 20260902222545 | 98 | 79 | 4.0 | 10.0 | 0.00 | 0.00 | 0.00 | 41 | 1012.0 |
| 20260902222022 | 98 | 64 | 4.0 | 10.0 | 0.00 | 0.00 | 0.00 | 40 | 1012.0 |
| 20260902221519 | 98 | 47 | 6.0 | 9.0 | 0.00 | 0.00 | 0.00 | 41 | 1012.0 |
| 20260902221017 | 98 | 79 | 5.0 | 11.0 | 0.00 | 0.00 | 0.00 | 40 | 1012.1 |
| 20260902220534 | 98 | 81 | 5.0 | 9.0 | 0.00 | 0.00 | 0.00 | 40 | 1012.0 |
| 20260902220031 | 98 | 84 | 5.0 | 11.0 | 0.00 | 0.00 | 0.00 | 40 | 1012.1 |
| 20260902215529 | 98 | 57 | 7.0 | 13.0 | 0.00 | 0.00 | 0.00 | 40 | 1012.2 |
| 20260902215026 | 98 | 66 | 5.0 | 10.0 | 0.00 | 0.00 | 0.00 | 38 | 1012.3 |
| 20260902214544 | 98 | 73 | 4.0 | 10.0 | 0.00 | 0.00 | 0.00 | 39 | 1012.2 |
| 20260902214022 | 98 | 62 | 4.0 | 9.0 | 0.00 | 0.00 | 0.00 | 39 | 1012.3 |
| 20260902213520 | 98 | 75 | 5.0 | 10.0 | 0.00 | 0.00 | 0.00 | 39 | 1012.4 |
| 20260902213018 | 98 | 80 | 4.0 | 8.0 | 0.00 | 0.00 | 0.00 | 39 | 1012.5 |
| 20260902212534 | 98 | 75 | 5.0 | 9.0 | 0.00 | 0.00 | 0.00 | 40 | 1012.4 |
| 20260902212032 | 98 | 90 | 6.0 | 12.0 | 0.00 | 0.00 | 0.00 | 40 | 1012.6 |
| 20260902211530 | 98 | 87 | 7.0 | 13.0 | 0.00 | 0.00 | 0.00 | 40 | 1012.5 |
| 20260902211028 | 98 | 82 | 4.0 | 8.0 | 0.00 | 0.00 | 0.00 | 40 | 1012.5 |
| 20260902210527 | 98 | 92 | 4.0 | 8.0 | 0.00 | 0.00 | 0.00 | 40 | 1012.6 |
| 20260902210024 | 98 | 88 | 4.0 | 9.0 | 0.00 | 0.00 | 0.00 | 39 | 1012.8 |
| 20260902205522 | 98 | 84 | 4.0 | 9.0 | 0.00 | 0.00 | 0.00 | 39 | 1012.9 |
| 20260902205019 | 99 | 75 | 3.0 | 10.0 | 0.00 | 0.00 | 0.00 | 38 | 1012.7 |
| 20260902204537 | 99 | 77 | 3.0 | 7.0 | 0.00 | 0.00 | 0.00 | 38 | 1012.8 |
| 20260902204036 | 98 | 87 | 4.0 | 10.0 | 0.00 | 0.00 | 0.00 | 39 | 1012.8 |
| 20260902203533 | 98 | 88 | 5.0 | 12.0 | 0.00 | 0.00 | 0.00 | 39 | 1012.9 |
| 20260902203032 | 98 | 64 | 5.0 | 11.0 | 0.00 | 0.00 | 0.00 | 40 | 1012.9 |
| 20260902202530 | 98 | 81 | 4.0 | 9.0 | 0.00 | 0.00 | 0.00 | 39 | 1013.0 |
| 20260902202027 | 98 | 53 | 5.0 | 10.0 | 0.00 | 0.00 | 0.00 | 40 | 1013.2 |
| 20260902201525 | 97 | 58 | 4.0 | 12.0 | 0.00 | 0.00 | 0.00 | 41 | 1013.3 |
| 20260902201023 | 98 | 44 | 4.0 | 8.0 | 0.00 | 0.00 | 0.00 | 41 | 1013.4 |
| 20260902200542 | 98 | 89 | 4.0 | 11.0 | 0.00 | 0.00 | 0.00 | 41 | 1013.4 |
| 20260902200020 | 97 | 59 | 4.0 | 8.0 | 0.00 | 0.00 | 0.00 | 42 | 1013.5 |
| 20260902195518 | 98 | 76 | 6.0 | 13.0 | 0.00 | 0.00 | 0.00 | 41 | 1013.7 |
| 20260902195016 | 97 | 72 | 3.0 | 6.0 | 0.00 | 0.00 | 0.00 | 42 | 1013.8 |
| 20260902194535 | 97 | 71 | 4.0 | 9.0 | 0.00 | 0.00 | 0.00 | 42 | 1013.9 |
| 20260902194034 | 98 | 101 | 3.0 | 9.0 | 0.00 | 0.00 | 0.00 | 41 | 1013.9 |
| 20260902193532 | 97 | 76 | 4.0 | 11.0 | 0.00 | 0.00 | 0.00 | 42 | 1013.9 |
| 20260902193030 | 97 | 94 | 4.0 | 9.0 | 0.00 | 0.00 | 0.00 | 42 | 1014.0 |
| 20260902192529 | 97 | 66 | 3.0 | 7.0 | 0.00 | 0.00 | 0.00 | 42 | 1014.0 |
| 20260902192027 | 97 | 79 | 4.0 | 10.0 | 0.00 | 0.00 | 0.00 | 43 | 1014.3 |
| 20260902191526 | 97 | 84 | 4.0 | 10.0 | 0.00 | 0.00 | 0.00 | 42 | 1014.4 |
| 20260902191024 | 96 | 282 | 2.0 | 5.0 | 0.00 | 0.00 | 0.00 | 43 | 1014.5 |
| 20260902190522 | 96 | 355 | 4.0 | 9.0 | 0.00 | 0.00 | 0.00 | 43 | 1014.6 |
| 20260902190041 | 96 | 61 | 4.0 | 8.0 | 0.00 | 0.00 | 0.00 | 43 | 1014.5 |
| 20260902185519 | 96 | 86 | 3.0 | 8.0 | 0.00 | 0.00 | 0.00 | 43 | 1014.6 |
| 20260902185057 | 97 | 64 | 3.0 | 7.0 | 0.00 | 0.00 | 0.00 | 43 | 1014.6 |
| 20260902184535 | 96 | 89 | 4.0 | 9.0 | 0.00 | 0.00 | 0.00 | 43 | 1014.7 |
| 20260902184033 | 96 | 67 | 5.0 | 10.0 | 0.00 | 0.00 | 0.00 | 44 | 1014.7 |
| 20260902183531 | 98 | 60 | 3.0 | 11.0 | 0.00 | 0.00 | 0.00 | 42 | 1014.8 |
| 20260902183029 | 96 | 125 | 3.0 | 7.0 | 0.00 | 0.00 | 0.00 | 43 | 1014.9 |
| 20260902182547 | 96 | 70 | 4.0 | 8.0 | 0.00 | 0.00 | 0.00 | 44 | 1015.0 |
| 20260902182025 | 96 | 77 | 2.0 | 6.0 | 0.00 | 0.00 | 0.00 | 44 | 1015.1 |
| 20260902181523 | 97 | 69 | 4.0 | 7.0 | 0.00 | 0.00 | 0.00 | 44 | 1015.3 |
| 20260902181021 | 96 | 95 | 3.0 | 9.0 | 0.00 | 0.00 | 0.00 | 45 | 1015.4 |
| 20260902180519 | 96 | 153 | 4.0 | 9.0 | 0.00 | 0.00 | 0.00 | 46 | 1015.4 |
| 20260902180017 | 95 | 223 | 4.0 | 10.0 | 0.00 | 0.00 | 0.00 | 46 | 1015.6 |
| 20260902175535 | 94 | 78 | 3.0 | 8.0 | 0.00 | 0.00 | 0.00 | 47 | 1015.7 |
| 20260902175033 | 94 | 81 | 5.0 | 10.0 | 0.00 | 0.00 | 0.00 | 47 | 1015.8 |
| 20260902174531 | 95 | 15 | 3.0 | 6.0 | 0.00 | 0.00 | 0.00 | 46 | 1015.7 |
| 20260902174029 | 97 | 99 | 3.0 | 5.0 | 0.00 | 0.00 | 0.00 | 45 | 1015.8 |
| 20260902173527 | 96 | 114 | 2.0 | 6.0 | 0.00 | 0.00 | 0.00 | 45 | 1015.9 |
| 20260902173025 | 95 | 112 | 3.0 | 9.0 | 0.00 | 0.00 | 0.00 | 45 | 1016.0 |
| 20260902172523 | 95 | 41 | 3.0 | 5.0 | 0.00 | 0.00 | 0.00 | 45 | 1016.0 |
| 20260902172021 | 97 | 159 | 3.0 | 8.0 | 0.00 | 0.00 | 0.00 | 44 | 1016.1 |
| 20260902171519 | 96 | 167 | 2.0 | 4.0 | 0.00 | 0.00 | 0.00 | 45 | 1015.9 |
| 20260902171017 | 95 | 128 | 2.0 | 7.0 | 0.00 | 0.00 | 0.00 | 46 | 1016.2 |
| 20260902170555 | 96 | 104 | 3.0 | 7.0 | 0.00 | 0.00 | 0.00 | 45 | 1016.4 |
| 20260902170033 | 95 | 152 | 2.0 | 9.0 | 0.00 | 0.00 | 0.00 | 46 | 1016.4 |
| 20260902165531 | 93 | 92 | 2.0 | 7.0 | 0.00 | 0.00 | 0.00 | 47 | 1016.3 |
| 20260902165029 | 92 | 85 | 4.0 | 10.0 | 0.00 | 0.00 | 0.00 | 48 | 1016.4 |
| 20260902164527 | 93 | 77 | 5.0 | 8.0 | 0.00 | 0.00 | 0.00 | 48 | 1016.4 |
| 20260902164026 | 94 | 83 | 3.0 | 8.0 | 0.00 | 0.00 | 0.00 | 46 | 1016.5 |
| 20260902163543 | 94 | 86 | 1.0 | 4.0 | 0.00 | 0.00 | 0.00 | 47 | 1016.6 |
| 20260902163020 | 93 | 112 | 2.0 | 5.0 | 0.00 | 0.00 | 0.00 | 48 | 1016.6 |
| 20260902162518 | 92 | 88 | 4.0 | 6.0 | 0.00 | 0.00 | 0.00 | 48 | 1016.6 |
| 20260902162016 | 92 | 82 | 3.0 | 6.0 | 0.00 | 0.00 | 0.00 | 49 | 1016.5 |
| 20260902161614 | 92 | 90 | 3.0 | 6.0 | 0.00 | 0.00 | 0.00 | 49 | 1016.7 |
| 20260902161032 | 92 | 81 | 3.0 | 7.0 | 0.00 | 0.00 | 0.00 | 49 | 1016.5 |
| 20260902160530 | 92 | 201 | 2.0 | 6.0 | 0.00 | 0.00 | 0.00 | 50 | 1016.6 |
| 20260902160028 | 92 | 72 | 2.0 | 6.0 | 0.00 | 0.00 | 0.00 | 51 | 1016.7 |
| 20260902155526 | 93 | 126 | 2.0 | 5.0 | 0.00 | 0.00 | 0.00 | 49 | 1016.7 |
| 20260902155024 | 93 | 191 | 1.0 | 4.0 | 0.00 | 0.00 | 0.00 | 50 | 1016.7 |
| 20260902154522 | 92 | 168 | 1.0 | 5.0 | 0.00 | 0.00 | 0.00 | 51 | 1016.7 |
| 20260902154020 | 91 | 169 | 2.0 | 5.0 | 0.00 | 0.00 | 0.00 | 53 | 1016.6 |
| 20260902153518 | 91 | 96 | 3.0 | 5.0 | 0.00 | 0.00 | 0.00 | 54 | 1016.6 |
| 20260902153037 | 91 | 116 | 2.0 | 6.0 | 0.00 | 0.00 | 0.00 | 53 | 1016.5 |
| 20260902152554 | 91 | 161 | 2.0 | 5.0 | 0.00 | 0.00 | 0.00 | 53 | 1016.5 |
| 20260902152036 | 91 | 107 | 1.0 | 4.0 | 0.00 | 0.00 | 0.00 | 54 | 1016.6 |
| 20260902151530 | 90 | 118 | 2.0 | 5.0 | 0.00 | 0.00 | 0.00 | 55 | 1016.5 |
| 20260902151048 | 90 | 107 | 2.0 | 4.0 | 0.00 | 0.00 | 0.00 | 55 | 1016.5 |
| 20260902150526 | 89 | 96 | 2.0 | 6.0 | 0.00 | 0.00 | 0.00 | 56 | 1016.5 |
| 20260902150044 | 89 | 102 | 2.0 | 6.0 | 0.00 | 0.00 | 0.00 | 56 | 1016.4 |
| 20260902145523 | 89 | 109 | 3.0 | 6.0 | 0.00 | 0.00 | 0.00 | 56 | 1016.4 |
| 20260902145020 | 89 | 108 | 2.0 | 4.0 | 0.00 | 0.00 | 0.00 | 56 | 1016.4 |
| 20260902144518 | 89 | 126 | 2.0 | 5.0 | 0.00 | 0.00 | 0.00 | 57 | 1016.4 |
| 20260902144016 | 88 | 129 | 2.0 | 6.0 | 0.00 | 0.00 | 0.00 | 57 | 1016.5 |
| 20260902143534 | 88 | 110 | 3.0 | 5.0 | 0.00 | 0.00 | 0.00 | 58 | 1016.6 |
| 20260902143032 | 88 | 125 | 2.0 | 4.0 | 0.00 | 0.00 | 0.00 | 59 | 1016.6 |
| 20260902142529 | 87 | 184 | 2.0 | 5.0 | 0.00 | 0.00 | 0.00 | 59 | 1016.6 |
| 20260902142027 | 88 | 162 | 2.0 | 6.0 | 0.00 | 0.00 | 0.00 | 60 | 1016.6 |
| 20260902141525 | 87 | 130 | 2.0 | 6.0 | 0.00 | 0.00 | 0.00 | 60 | 1016.5 |
| 20260902141022 | 87 | 159 | 1.0 | 5.0 | 0.00 | 0.00 | 0.00 | 61 | 1016.4 |
| 20260902140521 | 86 | 126 | 2.0 | 6.0 | 0.00 | 0.00 | 0.00 | 61 | 1016.5 |
| 20260902140040 | 86 | 142 | 2.0 | 6.0 | 0.00 | 0.00 | 0.00 | 61 | 1016.7 |
| 20260902135516 | 86 | 142 | 2.0 | 4.0 | 0.00 | 0.00 | 0.00 | 62 | 1016.5 |
| 20260902135034 | 86 | 128 | 2.0 | 6.0 | 0.00 | 0.00 | 0.00 | 62 | 1016.7 |
| 20260902134533 | 85 | 125 | 2.0 | 4.0 | 0.00 | 0.00 | 0.00 | 63 | 1016.7 |
| 20260902134031 | 85 | 113 | 2.0 | 4.0 | 0.00 | 0.00 | 0.00 | 63 | 1016.6 |
| 20260902133528 | 84 | 126 | 2.0 | 4.0 | 0.00 | 0.00 | 0.00 | 64 | 1016.5 |
| 20260902133026 | 84 | 108 | 2.0 | 6.0 | 0.00 | 0.00 | 0.00 | 64 | 1016.3 |
| 20260902132524 | 84 | 127 | 2.0 | 5.0 | 0.00 | 0.00 | 0.00 | 64 | 1016.4 |
| 20260902132042 | 84 | 26 | 2.0 | 4.0 | 0.00 | 0.00 | 0.00 | 66 | 1016.3 |
| 20260902131521 | 83 | 110 | 2.0 | 4.0 | 0.00 | 0.00 | 0.00 | 66 | 1016.4 |
| 20260902131018 | 83 | 158 | 1.0 | 3.0 | 0.00 | 0.00 | 0.00 | 67 | 1016.2 |
| 20260902130535 | 83 | 84 | 1.0 | 4.0 | 0.00 | 0.00 | 0.00 | 68 | 1016.4 |
| 20260902130033 | 83 | 78 | 2.0 | 4.0 | 0.00 | 0.00 | 0.00 | 68 | 1016.3 |
| 20260902125532 | 82 | 59 | 2.0 | 3.0 | 0.00 | 0.00 | 0.00 | 68 | 1016.2 |
| 20260902125030 | 82 | 23 | 2.0 | 4.0 | 0.00 | 0.00 | 0.00 | 69 | 1016.2 |
| 20260902124548 | 82 | 58 | 1.0 | 3.0 | 0.00 | 0.00 | 0.00 | 69 | 1016.2 |
| 20260902124025 | 81 | 166 | 0.0 | 2.0 | 0.00 | 0.00 | 0.00 | 70 | 1016.1 |
| 20260902123523 | 80 | 146 | 1.0 | 2.0 | 0.00 | 0.00 | 0.00 | 71 | 1015.9 |
| 20260902123020 | 80 | 177 | 1.0 | 3.0 | 0.00 | 0.00 | 0.00 | 72 | 1015.9 |
| 20260902122518 | 79 | 175 | 1.0 | 3.0 | 0.00 | 0.00 | 0.00 | 73 | 1015.8 |
| 20260902122036 | 79 | 214 | 1.0 | 2.0 | 0.00 | 0.00 | 0.00 | 73 | 1015.6 |
| 20260902121534 | 79 | 114 | 1.0 | 2.0 | 0.00 | 0.00 | 0.00 | 73 | 1015.8 |
| 20260902121032 | 79 | 57 | 1.0 | 2.0 | 0.00 | 0.00 | 0.00 | 73 | 1015.8 |
| 20260902120531 | 79 | 54 | 1.0 | 3.0 | 0.00 | 0.00 | 0.00 | 73 | 1015.8 |
| 20260902120049 | 79 | 117 | 1.0 | 2.0 | 0.00 | 0.00 | 0.00 | 73 | 1015.8 |
| 20260902115547 | 79 | 113 | 1.0 | 2.0 | 0.00 | 0.00 | 0.00 | 72 | 1015.6 |
| 20260902115025 | 80 | 158 | 1.0 | 4.0 | 0.00 | 0.00 | 0.00 | 72 | 1015.6 |
| 20260902114523 | 80 | 160 | 2.0 | 3.0 | 0.00 | 0.00 | 0.00 | 72 | 1015.6 |
| 20260902114023 | 80 | 176 | 1.0 | 3.0 | 0.00 | 0.00 | 0.00 | 72 | 1015.5 |
| 20260902113519 | 80 | 144 | 2.0 | 4.0 | 0.00 | 0.00 | 0.00 | 71 | 1015.7 |
| 20260902113016 | 80 | 130 | 2.0 | 4.0 | 0.00 | 0.00 | 0.00 | 71 | 1015.6 |
| 20260902112535 | 80 | 128 | 1.0 | 4.0 | 0.00 | 0.00 | 0.00 | 71 | 1015.7 |
| 20260902112033 | 80 | 129 | 2.0 | 5.0 | 0.00 | 0.00 | 0.00 | 71 | 1015.7 |
| 20260902111530 | 80 | 103 | 2.0 | 4.0 | 0.00 | 0.00 | 0.00 | 71 | 1015.7 |
| 20260902111028 | 80 | 46 | 2.0 | 4.0 | 0.00 | 0.00 | 0.00 | 71 | 1015.6 |
| 20260902110546 | 80 | 118 | 2.0 | 5.0 | 0.00 | 0.00 | 0.00 | 70 | 1015.6 |
| 20260902110024 | 80 | 137 | 1.0 | 4.0 | 0.00 | 0.00 | 0.00 | 70 | 1015.6 |
| 20260902105521 | 80 | 136 | 1.0 | 4.0 | 0.00 | 0.00 | 0.00 | 70 | 1015.6 |
| 20260902105019 | 80 | 135 | 2.0 | 4.0 | 0.00 | 0.00 | 0.00 | 70 | 1015.5 |
| 20260902104517 | 80 | 129 | 1.0 | 3.0 | 0.00 | 0.00 | 0.00 | 71 | 1015.7 |
| 20260902104035 | 80 | 151 | 1.0 | 2.0 | 0.00 | 0.00 | 0.00 | 70 | 1015.5 |
| 20260902103533 | 81 | 152 | 1.0 | 3.0 | 0.00 | 0.00 | 0.00 | 70 | 1015.7 |
| 20260902103031 | 81 | 138 | 1.0 | 2.0 | 0.00 | 0.00 | 0.00 | 70 | 1015.7 |
| 20260902102530 | 81 | 86 | 1.0 | 2.0 | 0.00 | 0.00 | 0.00 | 70 | 1015.8 |
| 20260902102028 | 81 | 80 | 0.0 | 2.0 | 0.00 | 0.00 | 0.00 | 69 | 1015.6 |
| 20260902101527 | 81 | 0.0 | 1.0 | 0.00 | 0.00 | 0.00 | 69 | 1015.5 | |
| 20260902101025 | 81 | 115 | 0.0 | 2.0 | 0.00 | 0.00 | 0.00 | 68 | 1015.5 |
| 20260902100523 | 81 | 164 | 1.0 | 3.0 | 0.00 | 0.00 | 0.00 | 68 | 1015.5 |
| 20260902100021 | 81 | 158 | 1.0 | 2.0 | 0.00 | 0.00 | 0.00 | 68 | 1015.5 |
| 20260902095519 | 82 | 182 | 1.0 | 2.0 | 0.00 | 0.00 | 0.00 | 67 | 1015.6 |
| 20260902095038 | 82 | 168 | 1.0 | 2.0 | 0.00 | 0.00 | 0.00 | 67 | 1015.4 |
| 20260902094516 | 82 | 179 | 1.0 | 3.0 | 0.00 | 0.00 | 0.00 | 67 | 1015.5 |
| 20260902094034 | 82 | 175 | 1.0 | 4.0 | 0.00 | 0.00 | 0.00 | 67 | 1015.5 |
| 20260902093532 | 82 | 173 | 1.0 | 3.0 | 0.00 | 0.00 | 0.00 | 66 | 1015.6 |
| 20260902093030 | 82 | 169 | 1.0 | 4.0 | 0.00 | 0.00 | 0.00 | 66 | 1015.6 |
| 20260902092529 | 82 | 174 | 1.0 | 2.0 | 0.00 | 0.00 | 0.00 | 66 | 1015.5 |
| 20260902092027 | 82 | 195 | 1.0 | 3.0 | 0.00 | 0.00 | 0.00 | 66 | 1015.4 |
| 20260902091525 | 82 | 217 | 1.0 | 4.0 | 0.00 | 0.00 | 0.00 | 66 | 1015.5 |
| 20260902091023 | 83 | 188 | 1.0 | 3.0 | 0.00 | 0.00 | 0.00 | 66 | 1015.6 |
| 20260902090522 | 83 | 188 | 1.0 | 3.0 | 0.00 | 0.00 | 0.00 | 65 | 1015.5 |
| 20260902090019 | 83 | 194 | 1.0 | 4.0 | 0.00 | 0.00 | 0.00 | 65 | 1015.5 |
| 20260902085517 | 83 | 210 | 0.0 | 2.0 | 0.00 | 0.00 | 0.00 | 65 | 1015.6 |
| 20260902085015 | 83 | 218 | 1.0 | 3.0 | 0.00 | 0.00 | 0.00 | 64 | 1015.6 |
| 20260902084533 | 83 | 214 | 1.0 | 4.0 | 0.00 | 0.00 | 0.00 | 64 | 1015.7 |
| 20260902084031 | 83 | 219 | 1.0 | 3.0 | 0.00 | 0.00 | 0.00 | 64 | 1015.7 |
| 20260902083530 | 83 | 176 | 1.0 | 2.0 | 0.00 | 0.00 | 0.00 | 63 | 1015.7 |
| 20260902083028 | 84 | 182 | 1.0 | 2.0 | 0.00 | 0.00 | 0.00 | 63 | 1015.7 |
| 20260902082527 | 84 | 158 | 1.0 | 3.0 | 0.00 | 0.00 | 0.00 | 63 | 1015.8 |
| 20260902082026 | 84 | 190 | 1.0 | 3.0 | 0.00 | 0.00 | 0.00 | 62 | 1015.7 |
| 20260902081524 | 84 | 180 | 1.0 | 4.0 | 0.00 | 0.00 | 0.00 | 62 | 1015.7 |
| 20260902081024 | 84 | 185 | 1.0 | 4.0 | 0.00 | 0.00 | 0.00 | 62 | 1015.6 |
| 20260902080520 | 84 | 186 | 1.0 | 4.0 | 0.00 | 0.00 | 0.00 | 61 | 1015.7 |
| 20260902080018 | 85 | 195 | 2.0 | 5.0 | 0.00 | 0.00 | 0.00 | 61 | 1015.5 |
| 20260902075517 | 85 | 172 | 2.0 | 5.0 | 0.00 | 0.00 | 0.00 | 61 | 1015.5 |
| 20260902075035 | 85 | 196 | 2.0 | 4.0 | 0.00 | 0.00 | 0.00 | 61 | 1015.6 |
| 20260902074533 | 85 | 182 | 3.0 | 6.0 | 0.00 | 0.00 | 0.00 | 61 | 1015.6 |
| 20260902074031 | 85 | 200 | 2.0 | 4.0 | 0.00 | 0.00 | 0.00 | 61 | 1015.6 |
| 20260902073549 | 85 | 193 | 2.0 | 5.0 | 0.00 | 0.00 | 0.00 | 61 | 1015.7 |
| 20260902073027 | 85 | 174 | 2.0 | 4.0 | 0.00 | 0.00 | 0.00 | 61 | 1015.7 |
| 20260902072525 | 85 | 187 | 2.0 | 6.0 | 0.00 | 0.00 | 0.00 | 60 | 1015.8 |
| 20260902072043 | 85 | 185 | 2.0 | 6.0 | 0.00 | 0.00 | 0.00 | 60 | 1015.8 |
| 20260902071521 | 85 | 206 | 2.0 | 7.0 | 0.00 | 0.00 | 0.00 | 60 | 1015.9 |
| 20260902071019 | 85 | 188 | 2.0 | 7.0 | 0.00 | 0.00 | 0.00 | 60 | 1015.9 |
| 20260902070518 | 86 | 178 | 2.0 | 4.0 | 0.00 | 0.00 | 0.00 | 60 | 1015.7 |
| 20260902070016 | 86 | 202 | 2.0 | 6.0 | 0.00 | 0.00 | 0.00 | 60 | 1015.8 |
| 20260902065534 | 86 | 175 | 3.0 | 5.0 | 0.00 | 0.00 | 0.00 | 59 | 1015.7 |
| 20260902065033 | 86 | 175 | 4.0 | 8.0 | 0.00 | 0.00 | 0.00 | 59 | 1015.7 |
| 20260902064530 | 85 | 172 | 3.0 | 7.0 | 0.00 | 0.00 | 0.00 | 60 | 1015.7 |
| 20260902064049 | 86 | 177 | 2.0 | 6.0 | 0.00 | 0.00 | 0.00 | 60 | 1015.8 |
| 20260902063526 | 86 | 172 | 4.0 | 6.0 | 0.00 | 0.00 | 0.00 | 59 | 1015.6 |
| 20260902063025 | 86 | 190 | 3.0 | 8.0 | 0.00 | 0.00 | 0.00 | 59 | 1015.6 |
| 20260902062523 | 86 | 194 | 3.0 | 8.0 | 0.00 | 0.00 | 0.00 | 59 | 1015.5 |
| 20260902062021 | 86 | 198 | 3.0 | 6.0 | 0.00 | 0.00 | 0.00 | 59 | 1015.4 |
| 20260902061519 | 86 | 208 | 2.0 | 6.0 | 0.00 | 0.00 | 0.00 | 59 | 1015.4 |
| 20260902061017 | 87 | 177 | 2.0 | 4.0 | 0.00 | 0.00 | 0.00 | 58 | 1015.4 |